Date,TemperatureHighF,TemperatureAvgF,TemperatureLowF,DewpointHighF,DewpointAvgF,DewpointLowF,HumidityHigh,HumidityAvg,HumidityLow,PressureMaxIn,PressureMinIn,WindSpeedMaxMPH,WindSpeedAvgMPH,GustSpeedMaxMPH,PrecipitationSumIn
2013-1-13,36.5,33.2,31.8,33.0,31.3,30.0,95,92,83,29.72,29.54,0,0,2,0.00
2013-1-14,40.8,34.4,28.3,34.0,31.9,25.0,96,91,75,29.84,29.22,3,0,7,0.36
2013-1-15,28.1,13.2,6.7,26.0,10.3,4.0,92,87,82,30.26,29.85,2,0,6,0.00
2013-1-16,10.2,7.5,5.2,8.0,4.8,2.0,91,88,86,30.27,29.89,0,0,1,0.00
2013-1-17,12.8,3.8,-10.0,8.0,-1.9,-14.0,90,77,66,30.23,29.84,2,0,8,0.00
2013-1-18,-7.3,-11.9,-15.1,-11.0,-16.0,-20.0,84,81,80,30.52,30.24,0,0,2,0.00
2013-1-19,9.0,3.1,-9.7,-1.0,-6.5,-14.0,84,66,50,30.52,30.17,7,0,10,0.00
2013-1-20,10.8,6.8,0.1,7.0,3.3,-5.0,88,85,80,30.17,30.09,0,0,2,0.00
2013-1-21,9.9,5.9,-1.2,6.0,2.4,-5.0,88,86,81,30.20,30.09,0,0,0,0.00
2013-1-22,4.9,0.2,-2.2,2.0,-3.2,-6.0,88,86,84,30.09,29.81,0,0,5,0.00
2013-1-23,9.8,4.6,0.1,3.0,-2.2,-9.0,88,74,59,29.81,29.68,3,0,7,0.00
2013-1-24,1.9,-3.5,-12.7,-9.0,-14.6,-19.0,72,59,56,29.90,29.73,3,0,8,0.00
2013-1-25,-11.7,-21.7,-29.0,-19.0,-27.6,-35.0,77,74,65,30.12,29.91,0,0,2,0.00
2013-1-26,-22.8,-28.8,-32.1,-28.0,-34.3,-38.0,75,74,73,30.27,30.12,0,0,1,0.00
2013-1-27,-32.1,-36.3,-39.3,-38.0,-42.3,-45.0,73,71,70,30.73,30.29,0,0,0,0.00
2013-1-28,-7.7,-26.1,-37.6,-15.0,-31.9,-44.0,85,74,63,30.75,30.19,0,0,2,0.00
2013-1-29,-3.2,-8.1,-13.6,-12.0,-16.4,-20.0,77,67,52,30.18,29.98,0,0,3,0.00
2013-1-30,9.3,0.9,-7.2,5.0,-4.4,-13.0,83,78,73,30.02,29.75,0,0,2,0.00
2013-1-31,10.2,7.8,3.8,6.0,4.0,0.0,87,84,78,30.16,29.79,0,0,0,0.00
2013-2-1,16.3,5.8,-0.2,11.0,2.4,-4.0,90,86,78,30.22,29.95,0,0,0,0.00
2013-2-2,20.1,10.6,4.3,14.0,6.9,1.0,88,85,70,29.94,29.57,0,0,1,0.00
2013-2-3,17.8,11.8,7.2,14.0,8.7,4.0,90,87,81,29.58,29.37,0,0,33,0.00
2013-2-4,14.3,10.3,6.5,11.0,7.3,4.0,91,87,86,29.71,29.53,0,0,1,0.00
2013-2-5,10.0,3.3,-0.3,7.0,0.2,-4.0,90,86,84,29.71,29.67,0,0,2,0.00
2013-2-6,3.8,0.7,-3.0,0.0,-2.7,-7.0,90,85,83,29.80,29.66,0,0,1,0.00
2013-2-7,11.4,4.2,-1.5,9.0,1.1,-5.0,90,86,84,29.77,29.37,0,0,1,0.00
2013-2-8,8.5,4.0,-1.4,6.0,0.6,-5.0,89,86,82,29.88,29.40,0,0,1,0.00
2013-2-9,34.1,23.9,7.0,24.0,17.1,4.0,94,76,62,29.88,29.07,0,0,0,0.00
2013-2-10,35.5,24.6,7.5,29.0,19.1,4.0,88,79,67,29.52,28.99,3,0,4,0.00
2013-2-11,20.0,16.0,6.7,17.0,13.3,4.0,91,89,86,29.76,29.52,0,0,3,0.00
2013-2-12,13.9,8.0,3.8,11.0,5.1,1.0,91,88,83,29.85,29.76,0,0,1,0.00
2013-2-13,21.8,13.5,7.5,19.0,10.6,5.0,92,88,78,29.85,29.80,1,0,3,0.00
2013-2-14,29.7,25.2,20.0,20.0,14.3,10.0,88,65,46,29.80,29.37,1,0,4,0.00
2013-2-15,22.9,8.5,-4.1,20.0,4.1,-9.0,90,82,75,30.10,29.47,1,0,6,0.00
2013-2-16,5.9,-3.7,-11.1,-2.0,-8.4,-15.0,84,81,68,30.17,29.95,1,0,4,0.00
2013-2-17,-0.4,-5.7,-10.3,-4.0,-10.2,-15.0,84,81,77,30.24,29.90,1,0,2,0.00
2013-2-18,-7.2,-15.8,-22.0,-13.0,-21.1,-27.0,81,77,69,30.34,30.23,0,0,0,0.00
2013-2-19,1.0,-13.4,-23.8,-10.0,-19.9,-29.0,80,73,58,30.23,29.68,0,0,0,0.00
2013-2-20,6.5,-4.8,-15.9,-4.0,-12.4,-21.0,82,71,53,29.68,29.46,0,0,0,0.00
2013-2-21,2.7,-0.9,-7.0,-6.0,-8.1,-12.0,81,72,60,29.51,29.40,2,0,7,0.00
2013-2-22,-3.3,-8.4,-15.3,-10.0,-13.4,-20.0,81,78,72,29.69,29.44,0,0,1,0.00
2013-2-23,6.0,-4.2,-14.3,-1.0,-9.4,-19.0,84,78,68,29.62,29.39,1,0,3,0.00
2013-2-24,5.1,-3.2,-10.9,-3.0,-8.2,-15.0,86,79,68,29.76,29.42,1,0,1,0.00
2013-2-25,23.1,6.1,-6.9,13.0,0.6,-11.0,88,79,58,29.82,29.77,0,0,5,0.00
2013-2-26,28.5,16.5,8.0,13.0,7.9,3.0,83,70,45,29.82,29.52,2,0,3,0.00
2013-2-27,33.6,22.8,13.1,13.0,10.4,7.0,79,61,41,29.51,29.35,2,0,8,0.01
2013-2-28,33.7,21.3,10.8,17.0,11.4,6.0,80,67,47,29.50,29.40,2,0,6,0.01
2013-3-1,14.0,9.4,5.4,8.0,4.6,1.0,86,81,72,30.05,29.51,0,0,2,0.00
2013-3-2,20.2,9.0,2.4,12.0,4.5,-1.0,89,82,68,30.20,30.05,1,0,3,0.00
2013-3-3,24.7,11.1,1.4,14.0,6.4,-2.0,90,81,62,30.45,30.20,1,0,1,0.00
2013-3-4,30.1,15.9,3.9,17.0,9.7,1.0,90,78,55,30.50,30.32,1,0,1,0.00
2013-3-5,34.0,21.9,14.9,16.0,12.3,9.0,79,68,44,30.30,29.95,1,0,2,0.00
2013-3-6,20.8,13.8,8.0,10.0,6.0,3.0,83,72,56,29.96,29.89,1,0,3,0.00
2013-3-7,41.1,26.2,10.4,20.0,13.1,7.0,86,62,37,29.89,29.45,2,0,11,0.01
2013-3-8,45.0,35.4,26.0,26.0,21.0,18.0,78,57,38,29.62,29.50,3,0,9,0.10
2013-3-9,40.8,29.0,17.1,25.0,20.6,13.0,88,72,48,30.01,29.63,1,0,4,0.01
2013-3-10,27.8,20.6,11.2,25.0,15.0,7.0,92,80,55,30.33,30.02,1,0,4,0.00
2013-3-11,23.2,13.8,6.5,12.0,7.6,3.0,89,77,60,30.61,30.34,1,0,4,0.00
2013-3-12,24.3,11.3,1.9,5.0,-0.2,-5.0,82,63,33,30.62,30.39,2,0,4,0.00
2013-3-13,16.0,5.1,-3.6,-3.0,-9.3,-19.0,74,53,33,30.39,30.29,6,1,17,0.00
2013-3-14,16.9,4.9,-5.0,-8.0,-14.4,-21.0,48,41,32,30.30,30.20,6,1,12,0.00
2013-3-15,23.5,11.2,5.2,-7.0,-11.7,-15.0,49,36,23,30.23,29.98,9,0,9,0.00
2013-3-16,25.7,12.2,-0.3,3.0,-3.5,-10.0,69,52,32,30.23,30.04,3,0,7,0.00
2013-3-17,17.9,8.0,-2.2,0.0,-3.1,-8.0,78,62,40,30.34,30.19,2,0,3,0.00
2013-3-18,18.9,6.4,-2.5,0.0,-3.9,-8.0,80,64,42,30.20,30.05,3,0,5,0.00
2013-3-19,17.0,5.5,-3.3,-3.0,-6.8,-10.0,77,59,34,30.18,30.08,2,0,5,0.00
2013-3-20,10.3,0.0,-9.5,-2.0,-9.1,-16.0,79,66,50,30.09,29.98,3,0,5,0.00
2013-3-21,20.8,9.9,1.4,10.0,1.5,-3.0,84,70,41,30.16,30.04,3,0,5,0.00
2013-3-22,31.0,21.6,11.1,16.0,5.2,-1.0,71,51,34,30.07,29.71,3,0,7,0.00
2013-3-23,26.1,3.5,-6.9,19.0,-6.3,-13.0,82,65,43,30.11,29.72,3,0,6,0.00
2013-3-24,12.9,1.0,-10.2,2.0,-6.6,-16.0,83,72,47,30.09,29.81,1,0,2,0.00
2013-3-25,7.2,3.9,1.0,1.0,-1.5,-5.0,83,78,71,29.81,29.67,0,0,0,0.00
2013-3-26,4.9,-2.2,-12.0,-5.0,-10.6,-18.0,80,68,47,30.26,29.82,10,0,16,0.00
2013-3-27,13.0,-3.2,-17.9,-5.0,-13.4,-23.0,79,64,40,30.33,30.19,3,0,5,0.00
2013-3-28,33.2,13.9,-2.2,12.0,0.6,-8.0,81,59,30,30.19,29.93,2,0,5,0.02
2013-3-29,45.0,29.5,18.1,24.0,13.8,8.0,72,54,31,29.93,29.86,3,0,6,0.11
2013-3-30,38.9,27.5,13.5,23.0,15.0,9.0,84,62,37,30.21,29.93,3,0,4,0.00
2013-3-31,39.7,31.0,25.0,26.0,22.2,18.0,89,71,55,30.26,30.15,3,0,6,0.00
2013-4-1,37.7,29.2,22.1,27.0,21.2,14.0,94,74,49,30.15,30.07,5,0,7,0.00
2013-4-2,37.2,25.4,14.5,16.0,12.8,10.0,82,61,40,30.21,30.10,5,0,6,0.00
2013-4-3,32.3,23.4,16.5,10.0,5.5,-3.0,64,47,32,30.49,30.21,7,1,14,0.00
2013-4-4,29.7,19.8,13.4,1.0,-2.4,-6.0,48,39,25,30.50,30.11,6,1,14,0.00
2013-4-5,16.7,11.6,4.4,0.0,-7.1,-11.0,50,43,35,30.11,29.76,7,1,16,0.00
2013-4-6,19.7,9.9,-1.8,-2.0,-7.8,-12.0,64,45,34,29.76,29.63,5,1,9,0.00
2013-4-7,9.5,5.1,-2.4,2.0,-2.9,-8.0,84,70,51,29.95,29.67,1,0,5,0.00
2013-4-8,14.3,4.6,-6.1,7.0,-0.6,-11.0,85,79,67,29.98,29.52,1,0,5,0.00
2013-4-9,11.8,8.2,5.6,7.0,3.7,1.0,85,81,72,29.51,29.18,2,0,6,0.00
2013-4-10,15.2,6.5,-2.9,2.0,-2.8,-9.0,81,67,45,30.00,29.48,8,0,8,0.00
2013-4-11,14.1,2.8,-9.9,-1.0,-6.6,-14.0,81,66,48,30.29,30.00,4,0,6,0.00
2013-4-12,25.1,10.0,-4.8,5.0,-1.6,-9.0,83,62,36,30.39,30.30,3,0,8,0.00
2013-4-13,27.5,14.5,-0.7,4.0,-0.1,-7.0,77,55,34,30.51,30.40,3,0,8,0.00
2013-4-14,28.7,17.8,6.0,16.0,7.1,-1.0,76,64,45,30.60,30.52,3,0,5,0.00
2013-4-15,30.4,23.4,16.8,12.0,6.2,3.0,77,49,34,30.56,30.47,8,1,12,0.00
2013-4-16,29.0,21.7,11.5,12.0,5.7,1.0,65,51,40,30.46,30.27,4,1,11,0.00
2013-4-17,29.8,23.4,17.4,9.0,6.8,4.0,61,50,38,30.41,30.27,7,1,15,0.01
2013-4-18,31.2,22.2,9.1,9.0,4.5,2.0,71,48,35,30.46,30.41,6,1,14,0.00
2013-4-19,41.9,27.0,11.2,14.0,8.2,4.0,80,48,23,30.51,30.43,3,0,8,0.03
2013-4-20,45.0,32.3,20.3,20.0,10.5,6.0,75,44,22,30.43,30.30,3,0,6,0.00
2013-4-21,45.3,31.5,18.1,21.0,13.8,10.0,77,52,25,30.39,30.33,3,0,6,0.00
2013-4-22,47.7,33.5,19.3,23.0,14.7,9.0,75,51,22,30.49,30.39,3,0,7,0.00
2013-4-23,49.2,36.4,24.0,22.0,17.3,13.0,78,50,24,30.42,30.19,3,0,12,0.00
2013-4-24,36.4,32.6,26.2,29.0,25.2,19.0,92,75,52,30.18,29.98,2,0,11,0.11
2013-4-25,34.5,25.6,17.1,19.0,3.7,-5.0,72,40,26,30.11,30.00,5,1,10,0.00
2013-4-26,32.4,22.4,11.4,22.0,12.0,4.0,88,66,41,30.02,29.64,4,0,6,0.00
2013-4-27,29.0,23.4,13.2,20.0,6.1,-6.0,89,51,23,30.17,29.69,12,1,13,0.00
2013-4-28,36.6,21.3,5.7,18.0,4.0,-5.0,76,50,28,30.20,30.12,5,0,6,0.00
2013-4-29,32.2,26.3,18.3,26.0,20.0,14.0,92,77,62,30.16,30.10,4,0,7,0.00
2013-4-30,37.6,30.2,25.8,27.0,24.8,20.0,93,81,59,30.10,29.88,3,0,7,0.17
2013-5-1,39.2,29.5,23.3,24.0,19.0,12.0,83,66,47,29.87,29.67,5,1,9,0.09
2013-5-2,39.9,28.9,20.1,24.0,17.3,12.0,77,63,44,29.93,29.72,3,0,9,0.00
2013-5-3,42.9,33.5,25.9,30.0,26.1,20.0,90,75,58,29.95,29.84,3,0,6,0.01
2013-5-4,34.7,27.0,22.0,24.0,20.6,17.0,91,77,53,30.00,29.90,2,0,6,0.00
2013-5-5,40.7,30.7,21.5,20.0,15.2,10.0,84,57,30,30.15,30.01,6,1,9,0.00
2013-5-6,44.2,32.9,19.8,23.0,14.8,10.0,81,51,25,30.21,30.13,4,0,10,0.00
2013-5-7,46.6,35.4,23.2,24.0,18.8,14.0,84,55,30,30.27,30.21,6,1,8,0.00
2013-5-8,51.1,38.0,24.6,26.0,19.7,15.0,83,53,25,30.34,30.25,4,1,9,0.00
2013-5-9,59.7,43.3,27.8,29.0,22.7,17.0,83,51,19,30.37,30.20,4,0,8,0.00
2013-5-10,58.9,46.6,34.4,31.0,25.2,19.0,78,48,22,30.22,29.94,4,0,6,0.00
2013-5-11,60.4,48.2,36.3,32.0,26.7,24.0,73,47,26,29.94,29.65,3,0,5,0.00
2013-5-12,53.0,43.6,36.4,31.0,27.5,22.0,78,55,31,29.65,29.46,5,0,9,0.00
2013-5-13,37.5,29.8,22.5,26.0,6.4,-1.0,63,38,27,29.67,29.49,6,1,12,0.00
2013-5-14,42.9,31.5,20.0,16.0,12.6,9.0,72,48,29,29.69,29.63,5,0,9,0.00
2013-5-15,48.9,36.1,21.7,21.0,15.6,12.0,72,46,25,29.71,29.64,3,0,8,0.00
2013-5-16,51.7,40.8,26.5,29.0,21.8,17.0,75,50,26,29.68,29.41,5,0,10,0.00
2013-5-17,40.4,33.9,26.4,34.0,28.4,23.0,91,80,57,29.66,29.37,3,0,6,0.02
2013-5-18,33.8,26.4,20.7,23.0,10.6,3.0,89,55,28,30.21,29.67,5,0,12,0.01
2013-5-19,46.0,33.1,17.9,16.0,9.2,4.0,71,40,21,30.59,30.22,4,0,8,0.00
2013-5-20,55.6,41.1,25.2,20.0,15.1,12.0,71,39,18,30.65,30.43,4,0,9,0.00
2013-5-21,63.7,47.2,29.6,22.0,16.6,12.0,64,34,14,30.46,30.13,7,1,10,0.00
2013-5-22,68.7,53.3,35.9,28.0,23.1,19.0,58,34,16,30.13,29.93,3,0,12,0.00
2013-5-23,64.0,52.0,38.1,38.0,31.5,25.0,64,47,32,30.09,29.99,5,0,7,0.00
2013-5-24,70.6,56.4,39.6,40.0,34.6,30.0,84,49,24,30.12,29.96,3,0,7,0.00
2013-5-25,77.3,63.1,45.9,34.0,28.5,23.0,54,30,14,29.96,29.78,3,0,7,0.00
2013-5-26,79.7,63.7,44.8,38.0,30.9,27.0,56,32,16,29.84,29.74,4,0,7,0.00
2013-5-27,81.8,67.2,50.5,40.0,36.1,34.0,56,34,20,29.84,29.71,2,0,6,0.00
2013-5-28,83.4,67.6,52.1,41.0,35.5,31.0,56,33,16,29.75,29.64,3,0,8,0.00
2013-5-29,83.3,70.3,55.6,40.0,32.7,27.0,50,27,14,29.66,29.60,3,1,9,0.00
2013-5-30,84.8,69.2,52.1,43.0,35.5,24.0,57,33,11,29.80,29.66,4,0,6,0.00
2013-5-31,82.9,66.8,54.3,51.0,39.1,20.0,81,42,11,29.93,29.80,8,0,11,0.00
2013-6-1,77.3,64.8,49.6,43.0,36.2,32.0,60,37,22,30.03,29.93,4,0,8,0.00
2013-6-2,81.6,66.4,48.8,47.0,39.9,35.0,73,42,20,30.03,29.82,2,0,5,0.00
2013-6-3,59.1,54.7,50.4,50.0,47.3,44.0,93,76,59,29.88,29.63,2,0,3,0.03
2013-6-4,59.7,51.4,46.6,50.0,46.9,43.0,96,85,55,29.63,29.54,3,0,6,0.26
2013-6-5,52.9,48.4,45.1,51.0,46.6,44.0,96,93,87,29.85,29.60,4,0,8,0.20
2013-6-6,64.5,52.4,42.5,52.0,46.4,42.0,98,82,48,29.87,29.77,2,0,5,0.05
2013-6-7,69.5,57.1,46.1,52.0,43.9,38.0,93,66,34,29.90,29.79,2,0,4,0.00
2013-6-8,72.9,59.3,47.5,56.0,45.4,41.0,90,63,34,30.08,29.90,3,0,8,0.01
2013-6-9,66.4,56.1,46.5,51.0,43.5,37.0,84,65,39,30.19,30.09,6,0,9,0.00
2013-6-10,58.5,52.1,46.6,47.0,42.8,40.0,92,72,53,30.24,30.19,3,0,6,0.00
2013-6-11,66.6,52.7,39.2,48.0,42.1,38.0,95,70,40,30.26,30.11,2,0,5,0.00
2013-6-12,71.8,58.5,42.9,40.0,34.1,28.0,78,44,20,30.13,30.04,4,0,8,0.00
2013-6-13,78.6,62.1,45.6,43.0,35.0,26.0,75,42,15,30.11,30.04,3,0,5,0.00
2013-6-14,83.1,66.5,51.0,47.0,39.3,32.0,69,41,16,30.14,30.07,2,0,4,0.00
2013-6-15,85.1,68.0,52.6,48.0,41.4,33.0,67,40,20,30.22,30.12,2,0,5,0.00
2013-6-16,88.0,73.2,60.7,55.0,51.1,46.0,74,48,28,30.21,30.10,5,0,7,0.00
2013-6-17,85.6,74.9,64.7,53.0,39.3,29.0,66,31,13,30.17,30.06,4,1,8,0.00
2013-6-18,87.6,74.1,63.0,45.0,39.9,37.0,49,30,18,30.07,29.84,3,0,5,0.00
2013-6-19,87.5,74.0,60.1,46.0,41.9,37.0,54,34,18,29.88,29.75,2,0,6,0.00
2013-6-20,86.1,70.2,56.5,51.0,44.1,38.0,68,42,20,29.88,29.74,2,0,5,0.00
2013-6-21,68.9,62.5,54.8,55.0,51.4,45.0,84,68,46,29.88,29.74,1,0,3,0.00
2013-6-22,75.5,60.7,46.2,50.0,43.6,39.0,89,58,28,29.87,29.68,2,0,4,0.00
2013-6-23,84.5,68.2,52.7,49.0,43.4,37.0,70,45,20,29.69,29.55,2,0,6,0.00
2013-6-24,86.5,74.4,62.1,53.0,46.7,40.0,66,39,19,29.61,29.55,2,0,4,0.00
2013-6-25,90.5,77.7,64.8,58.0,50.9,47.0,67,41,23,29.62,29.56,3,0,8,0.00
2013-6-26,91.0,77.1,61.0,59.0,52.4,49.0,72,45,25,29.66,29.60,2,0,4,0.00
2013-6-27,82.3,71.3,62.1,63.0,57.5,50.0,94,63,44,29.93,29.66,3,0,6,0.08
2013-6-28,78.9,68.9,60.0,60.0,56.3,53.0,84,66,45,30.00,29.94,1,0,4,0.00
2013-6-29,75.8,67.1,58.3,60.0,57.2,52.0,92,72,45,29.97,29.87,0,0,8,0.00
2013-6-30,86.3,71.0,58.0,59.0,53.3,48.0,79,56,34,29.87,29.59,2,0,5,0.00
2013-7-1,79.3,66.4,58.5,55.0,48.5,45.0,73,54,30,29.61,29.42,1,0,4,0.00